This is the latest recevied weather packets stored in our database for station/object BV1EV-2. If no packets are shown the sender has not sent any weather packets the latest 10 day(s).
| Time | Temp. | Humidity | Pressure | Rain* | Wind** | Luminosity | Snow |
|---|---|---|---|---|---|---|---|
| 1777711068 | 30° C | 49% | 1008.1 hPa | - | - | - | - |
| 1777709868 | 28.89° C | 60% | 1008.1 hPa | - | - | - | - |
| 1777708668 | 28.89° C | 60% | 1008.2 hPa | - | - | - | - |
| 1777707467 | 28.89° C | 59% | 1008.3 hPa | - | - | - | - |
| 1777706267 | 28.89° C | 60% | 1008.4 hPa | - | - | - | - |
| 1777705067 | 28.89° C | 60% | 1008.5 hPa | - | - | - | - |
| 1777703867 | 28.89° C | 60% | 1008.6 hPa | - | - | - | - |
| 1777702667 | 28.89° C | 53% | 1008.8 hPa | - | - | - | - |
| 1777701467 | 30° C | 53% | 1009.1 hPa | - | - | - | - |
| 1777700267 | 29.44° C | 54% | 1009.2 hPa | - | - | - | - |
| 1777699067 | 29.44° C | 52% | 1009.1 hPa | - | - | - | - |
| 1777697867 | 28.89° C | 52% | 1009 hPa | - | - | - | - |
| 1777696667 | 28.33° C | 52% | 1009.3 hPa | - | - | - | - |
| 1777695468 | 26.67° C | 59% | 1009.5 hPa | - | - | - | - |
| 1777694267 | 26.11° C | 59% | 1009.9 hPa | - | - | - | - |
| 1777693067 | 26.11° C | 49% | 1010 hPa | - | - | - | - |
| 1777691868 | 25.56° C | 34% | 1010.2 hPa | - | - | - | - |
| 1777690668 | 26.11° C | 34% | 1010.4 hPa | - | - | - | - |
| 1777689467 | 26.11° C | 34% | 1010.6 hPa | - | - | - | - |
| 1777688267 | 27.22° C | 37% | 1010.8 hPa | - | - | - | - |
| 1777687068 | 25.56° C | 47% | 1011.2 hPa | - | - | - | - |
| 1777685868 | 25.56° C | 45% | 1011.4 hPa | - | - | - | - |
| 1777684667 | 25° C | 44% | 1011.6 hPa | - | - | - | - |
| 1777683467 | 26.11° C | 36% | 1011.6 hPa | - | - | - | - |
| 1777682267 | 26.67° C | 35% | 1011.7 hPa | - | - | - | - |
* Rain since midnight (hover to see other rain measurements)
** Current wind speed in m/s (hover to see current wind gust speed)